Regional Weather Roundup
Issued by NWS Wilmington, NC

Home | Current Version | Previous Version | Text Only | Print | Product List | Glossary On
Versions: 1 2 3 4 5 6 7 8 9 10 11 12 13 14 15 16 17 18 19 20 21 22 23 24 25 26 27 28 29 30 31 32 33 34 35 36 37 38 39 40 41 42 43 44 45 46 47 48 49 50
000
ASUS42 KILM 280610
RWRILM
RWRILM
REGIONAL HOURLY WEATHER ROUNDUP
NATIONAL WEATHER SERVICE WILMINGTON NC
100 AM EST SAT FEB 28 2015

NOTE: "FAIR" INDICATES FEW OR NO CLOUDS BELOW 12,000 FEET WITH NO
SIGNIFICANT WEATHER AND/OR OBSTRUCTIONS TO VISIBILITY.

...............WFO WILMINGTON COUNTY WARNING AREA...............

......COASTAL NC AND SC COUNTIES......

CITY           SKY/WX    TMP DP  RH WIND       PRES   REMARKS
WILMINGTON     PTCLDY    35  30  82 NE8       30.54R WCI  29
SOUTHPORT      PTCLDY    39  35  84 NE6       30.52S WCI  35
N MYRTLE BEACH PTCLDY    37  32  82 NE8       30.51R WCI  31
MYRTLE BEACH   PTCLDY    39  34  81 N9        30.53S WCI  33

......INLAND NC AND SC COUNTIES.......

CITY           SKY/WX    TMP DP  RH WIND       PRES   REMARKS
LUMBERTON      CLEAR     37  25  61 NE9       30.54R WCI  30
ELIZABETHTOWN  PTCLDY    35  27  72 CALM      30.54R
WHITEVILLE     PTCLDY    38  27  65 NE7       30.53R WCI  32
FLORENCE       CLEAR     36  28  73 NE7       30.53R WCI  30
DARLINGTON     CLEAR     36  27  69 NE6       30.55R WCI  31

....................REST OF NORTH CAROLINA......................

.........EASTERN NC.........

CITY           SKY/WX    TMP DP  RH WIND       PRES   REMARKS
CAPE HATTERAS  MOCLDY    36  32  85 N9G18     30.54S WCI  29
JACKSONVILLE   CLEAR     30  25  80 NE8       30.56S WCI  23
MOREHEAD CITY  PTCLDY    33  29  85 N12       30.55R WCI  24
KENANSVILLE    CLEAR     31  28  85 CALM      30.58R
NEW BERN       CLEAR     30  27  88 N9        30.58S WCI  22
ELIZABETH CITY CLEAR     31  24  75 NE12      30.62R WCI  22

.........CENTRAL NC.........

CITY           SKY/WX    TMP DP  RH WIND       PRES   REMARKS
RALEIGH DURHAM CLEAR     29  18  63 NE6       30.59R WCI  23
ROCKY MOUNT    CLEAR     27  24  89 NE7       30.61R WCI  19
ROANOKE RAPIDS NOT AVBL
FAYETTEVILLE   CLEAR     31  22  69 N7        30.56R WCI  24
HOFFMAN        CLEAR     33  23  69 NE6       30.59R WCI  27

.........WESTERN NC.........

CITY           SKY/WX    TMP DP  RH WIND       PRES   REMARKS
CHARLOTTE      CLEAR     34  18  52 NE6       30.53R WCI  29
GREENSBORO     CLEAR     28  11  48 NE8       30.55R WCI  20
HICKORY        NOT AVBL
BOONE          NOT AVBL
ASHEVILLE      NOT AVBL

.....................REST OF SOUTH CAROLINA.....................

.........EASTERN SC.........

CITY           SKY/WX    TMP DP  RH WIND       PRES   REMARKS
CHARLESTON     PTCLDY    38  34  85 NE6       30.48R WCI  33
BEAUFORT MCAS  PTCLDY    41  35  79 NE6       30.46R
HILTON HEAD    MOCLDY    45  39  81 N7        30.46S

.........CENTRAL SC.........

CITY           SKY/WX    TMP DP  RH WIND       PRES   REMARKS
COLUMBIA       CLEAR     41  30  65 E8        30.50R
ORANGEBURG     MOCLDY    38  33  82 NE6       30.49R WCI  33
SUMTER SHAW    CLEAR     37  29  72 E6        30.50R WCI  33

.........WESTERN SC.........

CITY           SKY/WX    TMP DP  RH WIND       PRES   REMARKS
GREENVILLE     NOT AVBL
ROCK HILL      CLEAR     35  24  64 NE5       30.53R WCI  31
ANDERSON       CLEAR     38  25  59 NE9       30.48R WCI  31
CLEMSON        NOT AVBL
GREENWOOD      CLEAR     33  29  85 N5        30.50R WCI  29


...................COASTAL AND OFFSHORE REPORTS..................

................LOCAL PIERS AND NC RESERVE................


STATION/POSITION TIME  SKY/WX   TEMP    WIND        PRES    VSBY
                                AIR SEA DIR/SP/G
                 (UTC)          (F)     (DEG/KT/KT) (MB)    (MI)
JOHNY MRCER PIER 0600            40 48   40/ 17/ 20 1033.2F
NC RESRV MASNBRO 0500            40      40/ 13     1032.0S
OCEAN CREST PIER 0600            39 47   20/  7/  9 1032.6R
SPRINGMAID  PIER 0600            42 45  360/  8/ 10 1032.9S


................COASTAL AND OFFSHORE BUOYS................


STATION/POSITION TIME  SKY/WX   TEMP    WIND        PRES    VSBY
                                AIR SEA DIR/SP/G
                 (UTC)          (F)     (DEG/KT/KT) (MB)    (MI)
DIMNDSHOAL 41025 NOT AVBL
CAPE LOOKOUT     0500            36      20/ 14/ 17 1033.6R
ONSLOW BAY 41036 NOT AVBL
5 WRITEBCH 41038 NOT AVBL
MASONBORO  41110 0600               47                N/A
WVE H/P(F/S)=  5/ 5 WND WVE H/P(F/S)=  5/ 5 SWL H/P/D(F/S/D)=  2/110/11

WILM HARBR 41108 0500               47                N/A
WVE H/P(F/S)=  3/ 4 WND WVE H/P(F/S)=  3/ 4 SWL H/P/D(F/S/D)=  2/130/11

27WRITEBCH 41037 NOT AVBL
FRYING PAN 41013 0600            50 62   50/ 19/ 23 1032.4R
WVE H/P(F/S)=  5/ 5 WND WVE H/P(F/S)=  5/ 5 SWL H/P/D(F/S/D)=  2/130/ 8

SUNST NRSH 41024 0500            41                   N/A
CAPRS NRSH 41029 NOT AVBL
EDISTO     41004 0600            55 64   50/ 21/ 25 1029.7F
WVE H/P(F/S)=  6/ 6 WND WVE H/P(F/S)=  5/ 6 SWL H/P/D(F/S/D)=  3/10



..........OFFSHORE BUOYS BEYOND 100 NM OFFSHORE...........
.....IN A TRIANGLE---HAT TO BERMUDA TO BAHAMAS TO HAT.....


STATION/POSITION TIME  SKY/WX   TEMP    WIND        PRES    VSBY
                                AIR SEA DIR/SP/G
                 (UTC)          (F)     (DEG/KT/KT) (MB)    (MI)
150E HAT   41001 NOT AVBL
W BERMUDA  41048 0527            63 68  290/  4/  6 1024.7S
WVE H/P(F/S)=  7/ 9 WND WVE H/P(F/S)=  2/ 3 SWL H/P/D(F/S/D)=  7/320/ 9

ATLANTIC S 41049 0451            73 74  120/  6/ 10 1025.4
WVE H/P(F/S)=  5/ 8 WND WVE H/P(F/S)=  2/ 4 SWL H/P/D(F/S/D)=  5/100/ 8

E BAHAMAS  41046 0544            77 78  100/ 16/ 19 1022.6F
WVE H/P(F/S)=  5/ 8 WND WVE H/P(F/S)=  5/ 5 SWL H/P/D(F/S/D)=  3/110/ 8

NE BAHAMAS 41047 0543            74 74  140/  6/  8 1023.7F
WVE H/P(F/S)=  5/12 WND WVE H/P(F/S)=  2/ 4 SWL H/P/D(F/S/D)=  5/340/12

120E CANVRL41010 0600            68 71   70/ 21/ 25 1024.0F
WVE H/P(F/S)=  8/ 6 WND WVE H/P(F/S)=  7/ 6 SWL H/P/D(F/S/D)=  5/ 20/13


END


USA.gov is the U.S. government's official web portal to all federal, state and local government web resources and services.